Location: Siratepeler Tepesi
(39.1042°N, 32.0781°E)
Time: 04:48:09
(UTC+00:00)

SPOT 5 - Pass Details

Date: 11 April 2026
Orbit: 618 x 803 km, 98.0° (Epoch: 9 May)

Event Time Altitude Azimuth Distance (km) Brightness Sun altitude
Exits shadow 17:33:08 - 165° (SSE) 2,744 5.5 -13.4°
Reaches altitude 10° 17:34:27 10° 166° (SSE) 2,216 5.0 -13.7°
Maximum altitude 17:39:18 89° 77° (ENE) 705 2.8 -14.5°
Drops below altitude 10° 17:43:57 10° 348° (NNW) 2,113 5.8 -15.3°
Sets 17:46:07 0° 348° (NNW) 3,005 6.6 -15.7°
